Regional Weather Roundup
Issued by NWS

Home | Current Version | Previous Version | Text Only | Print | Product List | Glossary Off
Versions: 1 2 3 4 5 6 7 8 9 10 11 12 13 14 15 16 17 18 19 20 21 22 23 24 25 26 27 28 29 30 31 32 33 34 35 36 37 38 39 40 41 42 43 44 45 46 47 48 49 50

000
ASUS43 KBIS 261202
RWRND

NORTH DAKOTA REGIONAL WEATHER ROUNDUP
NATIONAL WEATHER SERVICE BISMARCK ND
700 AM CDT SUN MAR 26 2017

NOTE: "FAIR" INDICATES FEW OR NO CLOUDS BELOW 12,000 FEET WITH NO
SIGNIFICANT WEATHER AND/OR OBSTRUCTIONS TO VISIBILITY.


NDZ001>003-009>011-017-261300-
NORTHWEST NORTH DAKOTA

CITY           SKY/WX    TMP DP  RH WIND       PRES   REMARKS
WILLISTON      FAIR      35  32  88 CALM      29.89S
6HR MIN TEMP:  35; 6HR MAX TEMP:  46;

MINOT          FAIR      38  33  82 SW8       29.89S
MINOT AFB      CLOUDY    33  32  94 W7        29.88S
$$

NDZ018>021-031>035-040>046-261300-
SOUTHWEST NORTH DAKOTA

CITY           SKY/WX    TMP DP  RH WIND       PRES   REMARKS
BISMARCK       CLOUDY    37  34  89 E3        29.93S
6HR MIN TEMP:  37; 6HR MAX TEMP:  42;

DICKINSON      MOCLDY    38  34  85 W3        29.88S
GARRISON         N/A     35  32  88 N5        29.89S
6HR MIN TEMP:  34; 6HR MAX TEMP:  40;

HETTINGER ARPT CLOUDY    41  36  82 E6        29.91R
$$

NDZ004>008-012>016-024-026-027-054-261300-
NORTHEAST NORTH DAKOTA

CITY           SKY/WX    TMP DP  RH WIND       PRES   REMARKS
GRAND FORKS    CLOUDY    34  33  96 SW10      29.96F
GRND FRKS AFB  CLOUDY    33  33  99 S9        29.95F
DEVILS LAKE    CLOUDY    33  32  96 NW5       29.92R
$$

NDZ022-023-025-028>030-036>039-047>053-261300-
SOUTHEAST NORTH DAKOTA

CITY           SKY/WX    TMP DP  RH WIND       PRES   REMARKS
FARGO          CLOUDY    34  33  96 CALM      29.98S FOG
6HR MIN TEMP:  34; 6HR MAX TEMP:  36;

JAMESTOWN      FOG       33  33 100 S5        29.94R VSB 1/2
$$





USA.gov is the U.S. government's official web portal to all federal, state and local government web resources and services.